This demonstration page uses our WeatherBlox Daily Observations layout. Learn more.

Left ArrowRight Arrow

Hourly Observations for September 16, 2020

Temp ( °F °C ) Dew Point ( °F °C ) Humidity (%) Winds ( mph kmh ) Pressure ( in mb ) Visibility ( mi km ) Precip ( " mm )
12:53 am 00:53 Clear 69 20.6 58 14.4 68 68 SE 7 11 29.98 1015 10 16 0.00 0.00
1:53 am 01:53 Clear 67 19.4 59 15 76 76 SSE 7 11 29.97 1015 10 16 0.00 0.00
2:53 am 02:53 Clear 67 19.4 59 15 76 76 SE 5 7 29.97 1015 10 16 0.00 0.00
3:53 am 03:53 Clear 65 18.3 59 15 81 81 Calm 29.96 1014 10 16 0.00 0.00
4:53 am 04:53 Clear 64 17.8 60 15.6 87 87 NNE 3 6 29.95 1014 10 16 0.00 0.00
5:53 am 05:53 Clear 64 17.8 59 15 84 84 Calm 29.95 1014 10 16 0.00 0.00
6:53 am 06:53 Clear 64 17.8 59 15 84 84 ENE 3 6 29.95 1014 10 16 0.00 0.00
7:53 am 07:53 Sunny 64 17.8 59 15 84 84 Calm 29.97 1015 10 16 0.00 0.00
8:53 am 08:53 Sunny 66 18.9 59 15 78 78 Calm 29.98 1015 10 16 0.00 0.00
9:53 am 09:53 Partly Cloudy 71 21.7 59 15 66 66 SE 8 13 29.99 1016 10 16 0.00 0.00
10:53 am 10:53 Mostly Cloudy 77 25 59 15 54 54 SE 7 11 29.99 1016 10 16 0.00 0.00
11:53 am 11:53 Sunny 82 27.8 55 12.8 40 40 SSW 9 15 29.99 1016 10 16 0.00 0.00
12:53 pm 12:53 Sunny 83 28.3 55 12.8 38 38 S 5 7 29.98 1015 10 16 0.00 0.00
1:53 pm 13:53 Sunny 85 29.4 54 12.2 35 35 SE 8 13 29.96 1014 10 16 0.00 0.00
2:53 pm 14:53 Sunny 86 30 53 11.7 32 32 SE 10 17 29.93 1014 10 16 0.00 0.00
3:53 pm 15:53 Sunny 88 31.1 50 10 27 27 SE 12 19 29.91 1013 10 16 0.00 0.00
4:53 pm 16:53 Mostly Sunny 88 31.1 51 10.6 28 28 SSE 9 15 29.89 1012 10 16 0.00 0.00
5:53 pm 17:53 Sunny 88 31.1 49 9.4 26 26 ESE 6 9 29.89 1012 10 16 0.00 0.00
6:53 pm 18:53 Sunny 87 30.6 50 10 28 28 ESE 3 6 29.90 1013 10 16 0.00 0.00
7:34 pm 19:34 Partly Cloudy 80 26.7 54 12.2 41 41 ENE 22 35 29.87 1012 10 16 0.00 0.00
7:42 pm 19:42 Partly Cloudy with Nearby Thunderstorms 78 25.6 55 12.8 45 45 ENE 22 35 29.88 1012 10 16 0.00 0.00
7:53 pm 19:53 Sunny 76 24.4 57 13.9 52 52 ENE 17 28 29.95 1014 10 16 0.00 0.00
8:17 pm 20:17 Mostly Clear with Nearby Thunderstorms 73 22.8 56 13.3 55 55 E 17 28 29.93 1014 10 16 0.00 0.00
8:53 pm 20:53 Mostly Cloudy with Nearby Thunderstorms 75 23.9 52 11.1 45 45 ESE 23 37 29.97 1015 10 16 0.00 0.00
9:07 pm 21:07 Partly Cloudy 76 24.4 52 11.1 43 43 SE 20 31 29.93 1013 10 16 0.00 0.00
9:16 pm 21:16 Partly Cloudy with Nearby Thunderstorms 75 23.9 52 11.1 45 45 ESE 26 43 29.93 1014 10 16 0.00 0.00
9:41 pm 21:41 Cloudy with Light Rain 71 21.7 57 13.9 61 61 ESE 15 24 29.98 1015 9 14 0.04 1.02
9:53 pm 21:53 Cloudy with Light Rain 70 21.1 58 14.4 66 66 SE 10 17 30.00 1016 6 10 0.07 1.78
10:53 pm 22:53 Mostly Cloudy 70 21.1 59 15 68 68 N 8 13 30.00 1016 10 16 0.00 0.00
11:53 pm 23:53 Clear 71 21.7 61 16.1 71 71 N 3 6 29.97 1015 10 16 0.00 0.00

Powered by AerisWeather